Weather Roundup
Issued by NWS

Home | Current Version | Previous Version | Text Only | Print | Product List | Glossary On
Versions: 1 2 3 4 5 6 7 8 9 10 11 12 13 14 15 16 17 18 19 20 21 22 23 24 25 26 27 28 29 30 31 32 33 34 35 36 37 38 39 40 41 42 43 44 45 46 47 48 49 50
170
NZUS93 KARX 250759
HRRWXR

CURRENT HOURLY OBSERVATIONS ACROSS
MUCH OF THE UPPER MISSISSIPPI VALLEY
NATIONAL WEATHER SERVICE LA CROSSE WI
300 AM CDT MON SEP 25 2017


...SOUTHEAST MINNESOTA...


CITY           SKY/WX    TMP DP  RH WIND       PRES   REMARKS
ROCHESTER      PTCLDY    65  62  90 W5        29.96S
ROCHESTER/MAYO PTSUNNY   69  63  83 CALM      29.95S
WINONA         CLEAR     70  63  78 CALM      29.93S
AUSTIN         CLOUDY    66  63  88 CALM      29.95S
ALBERT LEA     MOCLDY    70  68  94 N6        29.95F
DODGE CENTER   CLOUDY    68  64  88 NW5       29.96S
PRESTON        CLEAR     65  60  84 S5        29.96S
OWATONNA       CLOUDY    64  63  94 NW9       29.97R
FARIBAULT      LGT RAIN  64  63  94 W6        29.97S
$$

...ELSEWHERE IN MINNESOTA...


CITY           SKY/WX    TMP DP  RH WIND       PRES   REMARKS
MINNEAPOLIS    RAIN      66  65  96 W9        29.96R FOG
INTNL FALLS    CLOUDY    52  50  93 W9G20     29.94R
DULUTH         CLOUDY    63  62  97 NW13      29.92R
RED WING       CLOUDY    72  64  78 W3        29.93R
REDWOOD FALLS  CLOUDY    55  52  89 NW7       30.01R
MANKATO        LGT RAIN  63  61  94 NE7       29.95F
WORTHINGTON    RAIN      55  53  93 N9        30.02R
FAIRMONT       CLOUDY    60  59  96 NW9       29.97R
$$

...SOUTHWEST WISCONSIN...


CITY           SKY/WX    TMP DP  RH WIND       PRES   REMARKS
LA CROSSE      CLEAR     72  66  81 W5        29.94R
PRAIRIE DU CHI CLEAR     69  61  76 CALM      29.95S
BOSCOBEL       CLEAR     64  62  93 CALM      29.96S FOG
LONE ROCK      NOT AVBL
PLATTEVILLE    CLEAR     69  63  80 SE7       29.98S
FORT MC COY    CLEAR     63  60  90 CALM      29.96S
MAUSTON-NEW LI SUNNY     70  62  74 S6        29.95F
VIROQUA        FAIR      69  63  81 S6        29.97F
WIS DELLS      MOCLDY    68  60  75 S5        29.97F
$$

...ELSEWHERE IN WISCONSIN...


CITY           SKY/WX    TMP DP  RH WIND       PRES   REMARKS
MILWAUKEE      CLEAR     69  64  84 CALM      29.99S
MADISON        CLEAR     64  61  90 CALM      29.98S
GREEN BAY      CLEAR     67  62  84 S5        29.98S
EAU CLAIRE     NOT AVBL
BLACK RVR FLS  FAIR      60  60 100 CALM      29.93F
MEDFORD        PTCLDY    62  59  88 S3        29.97S
WAUSAU         CLEAR     64  60  87 SE5       29.96S
WIS RAPIDS     CLEAR     64  60  87 CALM      29.97F
MARSHFIELD     CLEAR     65  59  81 S5        29.96F
RICE LAKE      LGT RAIN  68  65  92 CALM      29.95F
$$

...NORTHEAST IOWA...


CITY           SKY/WX    TMP DP  RH WIND       PRES   REMARKS
WATERLOO       PTCLDY    69  61  75 S5        29.92F
DUBUQUE        CLEAR     67  61  81 S5        29.97F
DECORAH        CLEAR     68  63  83 CALM      29.95R
MASON CITY     CLOUDY    65  63  93 CALM      29.96S
CHARLES CITY   CLEAR     64  64 100 CALM      29.95S
OELWEIN        CLEAR     66  63  88 SE7       29.96S
$$

...ELSEWHERE IN IOWA...


CITY           SKY/WX    TMP DP  RH WIND       PRES   REMARKS
DES MOINES     PTCLDY    72  63  73 SE6       29.92S
IOWA CITY      CLEAR     66  62  87 CALM      29.96S
FORT DODGE     PTCLDY    66  65  96 E5        29.94S
MARSHALLTOWN   CLEAR     66  63  90 SE5       29.93S
CEDAR RAPIDS   CLEAR     68  62  81 SE6       29.94F
$$

...NORTHERN ILLINOIS...


CITY           SKY/WX    TMP DP  RH WIND       PRES   REMARKS
CHICAGO-OHARE  PTCLDY    71  59  65 S5        29.99S
CHICAGO-MIDWAY PTCLDY    75  57  53 S5        30.00S
MOLINE         CLEAR     70  60  70 E5        29.95S
ROCKFORD       CLEAR     66  60  81 CALM      29.99F
PEORIA         CLEAR     72  60  66 SE3       29.97S
$$

NOTE: "FAIR" INDICATES FEW OR NO CLOUDS BELOW 12,000 FEET WITH NO
SIGNIFICANT WEATHER AND/OR OBSTRUCTIONS TO VISIBILITY. WIND
SPEEDS ARE IN MILES-PER-HOUR.




USA.gov is the U.S. government's official web portal to all federal, state and local government web resources and services.